Weather History for La Grande, OR

Change the Weather History Date:

Saturday, February 9, 2013

  Actual Average Record
Temperature  
Mean Temperature 36 °F -  
Max Temperature 42 °F 38 °F 54 °F (1987)
Min Temperature 30 °F 26 °F -4 °F (1989)
Degree Days  
Heating Degree Days 29    
Moisture  
Dew Point 22 °F    
Average Humidity 56    
Maximum Humidity 70    
Minimum Humidity 42    
Precipitation  
Precipitation 0.02 in - - ()
Sea Level Pressure  
Sea Level Pressure 30.04 in    
Wind  
Wind Speed 14 mph (NW)    
Max Wind Speed 22 mph    
Max Gust Speed 28 mph    
Visibility 10 miles    
Events      
Averages and records for this station are not official NWS values.
T = Trace of Precipitation, MM = Missing Value Source: NWS Daily Summary

Daily Weather History Graph

Daily Weather History Graph

Search for Another Location

Airport:

Trip Planner

Search our weather history database for the weather conditions in past years. The results will help you decide how hot, cold, wet, or windy it might be!

Date:

Astronomy

Feb. 09, 2013 Rise Set
Actual Time 7:01 AM PST 5:11 PM PST
Civil Twilight 6:30 AM PST 5:42 PM PST
Nautical Twilight 5:56 AM PST 6:17 PM PST
Astronomical Twilight 5:21 AM PST 6:51 PM PST
Moon 6:15 AM PST (2/9) 5:01 PM PST (2/9)
Length of Visible Light 11h 11m
Length of Day
10h 09m
Waning Crescent, 0% of the Moon is Illuminated
Feb 9
Waning Crescent
Feb 9
New
Feb 17
First Quarter
Feb 25
Full
Mar 4
Last Quarter

Hourly Weather History & Observations

Time (PST) Temp. Windchill Dew Point Humidity Pressure Visibility Wind Dir Wind Speed Gust Speed Precip Events Conditions
12:15 AM 32.0 °F 23.6 °F 21.2 °F 64% 30.06 in 10.0 mi NNW 10.4 mph - N/A   Overcast
12:35 AM 32.0 °F 24.2 °F 19.4 °F 60% 30.05 in 10.0 mi NW 9.2 mph - N/A   Overcast
12:55 AM 32.0 °F 23.6 °F 21.2 °F 64% 30.04 in 10.0 mi NW 10.4 mph - N/A   Overcast
1:15 AM 33.8 °F 25.8 °F 21.2 °F 60% 30.05 in 10.0 mi NW 10.4 mph - N/A   Overcast
1:35 AM 33.8 °F 25.3 °F 21.2 °F 60% 30.05 in 10.0 mi NW 11.5 mph - N/A   Overcast
1:55 AM 33.8 °F 24.8 °F 21.2 °F 60% 30.04 in 10.0 mi NW 12.7 mph - N/A   Overcast
2:15 AM 33.8 °F 24.3 °F 21.2 °F 60% 30.04 in 10.0 mi NW 13.8 mph - N/A   Overcast
2:35 AM 33.8 °F 24.8 °F 21.2 °F 60% 30.03 in 10.0 mi WNW 12.7 mph - N/A   Overcast
2:55 AM 33.8 °F 24.3 °F 21.2 °F 60% 30.03 in 10.0 mi NW 13.8 mph - N/A   Overcast
3:15 AM 33.8 °F 24.8 °F 21.2 °F 60% 30.03 in 10.0 mi NW 12.7 mph - N/A   Overcast
3:35 AM 33.8 °F 24.3 °F 21.2 °F 60% 30.03 in 10.0 mi NW 13.8 mph - N/A   Overcast
3:55 AM 33.8 °F 25.3 °F 19.4 °F 56% 30.03 in 10.0 mi NW 11.5 mph - N/A   Overcast
4:15 AM 33.8 °F 24.3 °F 21.2 °F 60% 30.03 in 10.0 mi NW 13.8 mph - N/A   Overcast
4:35 AM 33.8 °F 24.8 °F 19.4 °F 56% 30.02 in 10.0 mi NW 12.7 mph - N/A   Overcast
4:55 AM 33.8 °F 23.9 °F 19.4 °F 56% 30.02 in 10.0 mi WNW 15.0 mph - N/A   Overcast
5:15 AM 33.8 °F 24.8 °F 19.4 °F 56% 30.02 in 10.0 mi NW 12.7 mph - N/A   Overcast
5:35 AM 33.8 °F 24.8 °F 19.4 °F 56% 30.02 in 10.0 mi NW 12.7 mph - N/A   Overcast
5:55 AM 33.8 °F 23.5 °F 19.4 °F 56% 30.03 in 10.0 mi NW 16.1 mph 20.7 mph N/A   Overcast
6:15 AM 32.0 °F 21.6 °F 19.4 °F 60% 30.03 in 10.0 mi NW 15.0 mph - N/A   Overcast
6:35 AM 32.0 °F 22.1 °F 19.4 °F 60% 30.03 in 10.0 mi NW 13.8 mph - N/A   Overcast
6:55 AM 32.0 °F 21.6 °F 19.4 °F 60% 30.04 in 10.0 mi NW 15.0 mph 21.9 mph N/A   Overcast
7:15 AM 30.2 °F 19.8 °F 19.4 °F 64% 30.04 in 10.0 mi NW 13.8 mph - N/A   Overcast
7:35 AM 30.2 °F 18.9 °F 19.4 °F 64% 30.05 in 10.0 mi NW 16.1 mph - N/A   Partly Cloudy
7:55 AM 30.2 °F 19.3 °F 19.4 °F 64% 30.05 in 10.0 mi NW 15.0 mph - N/A   Clear
8:15 AM 32.0 °F 19.8 °F 19.4 °F 60% 30.05 in 10.0 mi NW 20.7 mph 25.3 mph N/A   Clear
8:35 AM 33.8 °F 22.8 °F 19.4 °F 56% 30.05 in 10.0 mi NW 18.4 mph - N/A   Clear
8:55 AM 33.8 °F 22.8 °F 19.4 °F 56% 30.05 in 10.0 mi NW 18.4 mph - N/A   Clear
9:15 AM 33.8 °F 22.8 °F 19.4 °F 56% 30.05 in 10.0 mi NW 18.4 mph - N/A   Scattered Clouds
9:35 AM 33.8 °F 21.9 °F 19.4 °F 56% 30.05 in 10.0 mi NW 21.9 mph 25.3 mph N/A   Overcast
9:55 AM 35.6 °F 24.8 °F 19.4 °F 52% 30.05 in 10.0 mi NW 19.6 mph - N/A   Mostly Cloudy
10:15 AM 35.6 °F 24.2 °F 21.2 °F 56% 30.04 in 10.0 mi WNW 21.9 mph 27.6 mph N/A   Clear
10:35 AM 35.6 °F 25.2 °F 19.4 °F 52% 30.04 in 10.0 mi WNW 18.4 mph 24.2 mph N/A   Scattered Clouds
10:55 AM 35.6 °F 25.2 °F 19.4 °F 52% 30.04 in 10.0 mi NW 18.4 mph - N/A   Overcast
11:15 AM 35.6 °F 25.2 °F 19.4 °F 52% 30.04 in 10.0 mi NW 18.4 mph - N/A   Mostly Cloudy
11:35 AM 37.4 °F 27.8 °F 21.2 °F 52% 30.04 in 10.0 mi NW 17.3 mph - N/A   Overcast
11:55 AM 37.4 °F 27.5 °F 19.4 °F 48% 30.03 in 10.0 mi NW 18.4 mph - N/A   Overcast
12:15 PM 37.4 °F 27.5 °F 21.2 °F 52% 30.02 in 10.0 mi NW 18.4 mph - N/A   Overcast
12:35 PM 39.2 °F 29.6 °F 21.2 °F 49% 30.02 in 10.0 mi NW 19.6 mph - N/A   Overcast
12:55 PM 39.2 °F 30.5 °F 21.2 °F 49% 30.02 in 10.0 mi NW 16.1 mph 23.0 mph N/A   Scattered Clouds
1:15 PM 41.0 °F 31.9 °F 21.2 °F 45% 30.01 in 10.0 mi WNW 19.6 mph 25.3 mph N/A   Clear
1:35 PM 42.8 °F 34.5 °F 21.2 °F 42% 30.02 in 10.0 mi WNW 18.4 mph - N/A   Clear
1:55 PM 42.8 °F 34.0 °F 21.2 °F 42% 30.01 in 10.0 mi WNW 20.7 mph 24.2 mph N/A   Clear
2:15 PM 42.8 °F 34.3 °F 21.2 °F 42% 30.01 in 10.0 mi WNW 19.6 mph - N/A   Clear
2:35 PM 42.8 °F 34.8 °F 21.2 °F 42% 30.00 in 10.0 mi WNW 17.3 mph 23.0 mph N/A   Scattered Clouds
2:55 PM 42.8 °F 35.1 °F 21.2 °F 42% 30.01 in 10.0 mi NW 16.1 mph 24.2 mph N/A   Mostly Cloudy
3:15 PM 41.0 °F 32.8 °F 21.2 °F 45% 30.01 in 10.0 mi NNW 16.1 mph 19.6 mph N/A   Mostly Cloudy
3:35 PM 42.8 °F 34.8 °F 21.2 °F 42% 30.00 in 10.0 mi NW 17.3 mph 21.9 mph N/A   Mostly Cloudy
3:55 PM 39.2 °F 30.2 °F 21.2 °F 49% 30.01 in 10.0 mi NW 17.3 mph 23.0 mph N/A   Scattered Clouds
4:15 PM 39.2 °F 30.8 °F 21.2 °F 49% 30.01 in 10.0 mi NW 15.0 mph - 0.01 in   Clear
4:35 PM 39.2 °F 30.5 °F 21.2 °F 49% 30.02 in 10.0 mi NW 16.1 mph 23.0 mph 0.01 in   Mostly Cloudy
4:55 PM 39.2 °F 31.2 °F 21.2 °F 49% 30.03 in 10.0 mi NW 13.8 mph - 0.01 in   Overcast
5:35 PM 37.4 °F 28.2 °F 21.2 °F 52% 30.03 in 10.0 mi NNW 16.1 mph - N/A   Overcast
5:55 PM 37.4 °F 27.5 °F 23.0 °F 56% 30.03 in 10.0 mi NNW 18.4 mph - N/A   Overcast
6:15 PM 37.4 °F 28.2 °F 23.0 °F 56% 30.04 in 10.0 mi NNW 16.1 mph 21.9 mph N/A   Overcast
6:35 PM 37.4 °F 29.3 °F 23.0 °F 56% 30.05 in 10.0 mi North 12.7 mph - N/A   Overcast
6:55 PM 37.4 °F 28.5 °F 24.8 °F 60% 30.05 in 10.0 mi NW 15.0 mph - N/A   Overcast
7:15 PM 37.4 °F 30.3 °F 24.8 °F 60% 30.06 in 10.0 mi NNW 10.4 mph - N/A   Overcast
7:35 PM 37.4 °F 31.4 °F 23.0 °F 56% 30.07 in 10.0 mi NNW 8.1 mph - N/A   Overcast
7:55 PM 37.4 °F 29.3 °F 24.8 °F 60% 30.07 in 10.0 mi NNW 12.7 mph - N/A   Overcast
8:15 PM 37.4 °F 30.3 °F 24.8 °F 60% 30.07 in 10.0 mi NNW 10.4 mph - N/A   Overcast
8:35 PM 37.4 °F 30.3 °F 24.8 °F 60% 30.07 in 10.0 mi North 10.4 mph - N/A   Overcast
8:55 PM 37.4 °F 30.8 °F 24.8 °F 60% 30.08 in 10.0 mi North 9.2 mph - N/A   Overcast
9:15 PM 37.4 °F 29.8 °F 26.6 °F 65% 30.08 in 10.0 mi North 11.5 mph - N/A   Overcast
9:55 PM 35.6 °F 29.9 °F 26.6 °F 70% 30.08 in 10.0 mi NNW 6.9 mph - N/A   Overcast
10:15 PM 37.4 °F 29.3 °F 26.6 °F 65% 30.07 in 10.0 mi NW 12.7 mph - N/A   Overcast
10:35 PM 37.4 °F 27.8 °F 26.6 °F 65% 30.08 in 10.0 mi WNW 17.3 mph - N/A   Overcast
10:55 PM 37.4 °F 29.8 °F 26.6 °F 65% 30.09 in 10.0 mi NNW 11.5 mph - N/A   Overcast
11:15 PM 37.4 °F 28.2 °F 24.8 °F 60% 30.09 in 10.0 mi NW 16.1 mph - N/A   Overcast
11:35 PM 35.6 °F 26.6 °F 24.8 °F 65% 30.09 in 10.0 mi WNW 13.8 mph - 0.01 in   Mostly Cloudy
11:55 PM 35.6 °F 26.2 °F 24.8 °F 65% 30.09 in 10.0 mi NW 15.0 mph - 0.01 in   Partly Cloudy